www.pogodaiklimat.ru

Погода и климат >> Архив погоды >> Австралия >> Новый Южный Уэльс >> Бурк


ПОГОДА в Бурке

  • Прогноз погоды в Бурке
  • Монитор погоды в Бурке

АРХИВ ПОГОДЫ в Бурке

Время (UTC), дата Ветер
(напр.,м/с)
 
Видим.   Явления Облачность Т
(С)
Тd
(С)
f
(%)
Тe
(С)
Тes
(С)
Комфортность P
(гПа)
Po
(гПа)
Тmin
(С)
Tmax
(С)
R
(мм)
R24
(мм)
S
(см)
07 17.06 ЮЗ 3 н/о н/о +17.9 -0.8 28 +18 +18 1021.1 1008.1
08 17.06 ЮЗ 3 н/о н/о +14.5 -1.2 34 +14 +14 1021.3 1008.3
09 17.06 ЮЗ 3 н/о н/о +11.3 -1.1 42 +10 +10 1021.9 1008.9
10 17.06 ЮЗ 3 н/о н/о +10.5 -0.9 45 +9 +9 1022.3 1009.3
11 17.06 З 3 н/о н/о +9.4 -1.3 47 +8 +8 1022.3 1009.3
12 17.06 ЮЗ 3 н/о н/о +7.5 -1.4 53 +5 +5 1022.4 1009.4
13 17.06 З 2 н/о н/о +5.3 -2.8 56 +4 +4 1022.3 1009.3
14 17.06 ЮЗ 3 н/о н/о +5.9 -0.6 63 +3 +3 1021.8 1008.8 +19.6
15 17.06 ЮЗ 3 н/о н/о +5.1 -0.9 65 +2 +2 1021.6 1008.6
16 17.06 Ю 1 н/о н/о +3.3 -2.4 66 +3 +3 1021.3 1008.3
17 17.06 ЮЗ 2 н/о н/о +3.2 -1.7 70 0 0 1021.3 1008.3
18 17.06 штиль 0 н/о н/о +1.9 -2.6 72 +1 +1 1021.2 1008.2
19 17.06 ЮЗ 1 н/о н/о +1.4 -2.9 73 +1 +1 1021.3 1008.3
20 17.06 З 2 н/о н/о +0.7 -3.4 74 -2 -2 1021.8 1008.8
21 17.06 З 2 н/о н/о +0.3 -3.2 77 -2 -2 1022.4 1009.4
22 17.06 З 2 н/о н/о +3.2 -0.8 75 +1 +1 1022.8 1009.8
23 17.06 ЮЗ 1 н/о н/о +9.1 +1.8 60 +9 +9 1023.3 1010.3
00 18.06 ЮЗ 2 н/о н/о +12.8 +2.4 49 +13 +13 1023.4 1010.4
01 18.06 З 1 н/о н/о +15.6 +2.4 41 +16 +16 1023.1 1010.1
02 18.06 З 3 н/о н/о +16.5 +2.2 38 +16 +16 1022.2 1009.2 +0.1
03 18.06 З 4 н/о н/о +18.3 +2.2 34 +18 +18 1021.4 1008.4
04 18.06 ЮЗ 5 н/о н/о +18.3 +0.4 30 +18 +18 1020.6 1007.6
05 18.06 ЮЗ 6 н/о н/о +18.4 +1.4 32 +18 +18 1020.3 1007.3
06 18.06 ЮЗ 5 н/о н/о +18.3 +1.3 32 +18 +18 1020.4 1007.4
07 18.06 ЮЗ 4 н/о н/о +16.6 +0.7 34 +16 +16 1020.8 1007.8
08 18.06 ЮЗ 2 н/о н/о +13.7 0.0 39 +13 +13 1021.2 1008.2
09 18.06 З 3 н/о н/о +12.4 +1.1 46 +11 +11 1021.6 1008.6
10 18.06 ЮЗ 3 н/о н/о +12.8 +1.5 46 +12 +12 1022.0 1009.0
11 18.06 ЮЗ 3 н/о н/о +12.6 +1.3 46 +11 +11 1022.2 1009.2
12 18.06 ЮЗ 3 н/о н/о +11.4 +1.9 52 +10 +10 1022.4 1009.4
13 18.06 З 2 н/о н/о +8.8 +0.8 57 +7 +7 1022.6 1009.6
14 18.06 ЮЗ 3 н/о н/о +8.6 +1.5 61 +6 +6 1022.7 1009.7 +19.1
15 18.06 ЮЗ 3 н/о н/о +7.8 +1.6 65 +5 +5 1022.4 1009.4
16 18.06 ЮЗ 3 н/о н/о +8.0 +2.9 70 +5 +5 1022.7 1009.7
17 18.06 Ю 4 н/о н/о +7.2 +3.3 76 +4 +4 1022.5 1009.5
18 18.06 Ю 3 н/о н/о +5.9 +2.7 80 +3 +3 1022.8 1009.8
19 18.06 Ю 3 н/о н/о +5.8 +2.8 81 +3 +3 1023.0 1010.0
20 18.06 ЮЗ 2 н/о н/о +2.4 0.0 84 -0 -0 1023.7 1010.7
21 18.06 ЮЗ 3 н/о н/о +2.6 +1.0 89 -1 -1 1024.3 1011.2
22 18.06 ЮЗ 2 н/о н/о +4.6 +2.9 89 +2 +2 1024.9 1011.8
23 18.06 Ю 4 н/о н/о +9.7 +4.5 70 +7 +7 1025.1 1012.0
00 19.06 Ю 5 н/о н/о +11.9 +4.2 59 +10 +10 1025.8 1012.7
01 19.06 Ю 4 н/о н/о +13.5 +2.1 46 +12 +12 1025.8 1012.7
02 19.06 ЮВ 5 н/о н/о +14.5 +0.4 38 +13 +13 1025.1 1012.0 +2.4
03 19.06 Ю 5 н/о н/о +15.0 -0.3 35 +14 +14 1024.1 1011.1
04 19.06 ЮЗ 4 н/о н/о +15.2 -0.9 33 +15 +15 1023.3 1010.3
05 19.06 ЮЗ 4 н/о н/о +15.2 -1.4 32 +15 +15 1022.9 1009.9
06 19.06 ЮЗ 4 н/о н/о +15.1 -1.9 31 +14 +14 1022.9 1009.9
07 19.06 Ю 4 н/о н/о +14.4 -2.9 30 +14 +14 1023.1 1010.1
08 19.06 ЮЗ 2 н/о н/о +10.9 -3.6 36 +10 +10 1023.4 1010.4
09 19.06 ЮЗ 2 н/о н/о +8.4 -3.7 42 +7 +7 1023.7 1010.7
10 19.06 Ю 3 н/о н/о +8.2 -3.0 45 +6 +6 1024.0 1011.0
11 19.06 Ю 3 н/о н/о +7.4 -3.2 47 +5 +5 1024.1 1011.1
12 19.06 Ю 4 н/о н/о +8.7 -2.3 46 +6 +6 1024.1 1011.1
13 19.06 Ю 4 н/о н/о +7.8 -2.8 47 +5 +5 1024.1 1011.1
14 19.06 Ю 3 н/о н/о +5.3 -4.0 51 +3 +3 1024.1 1011.1 +16.0
15 19.06 Ю 2 н/о н/о +3.1 -3.7 61 +1 +1 1024.3 1011.2
16 19.06 Ю 2 н/о н/о +0.8 -5.2 64 -2 -2 1024.5 1011.4
17 19.06 ЮЗ 3 н/о н/о +1.3 -3.7 69 -2 -2 1024.4 1011.3
18 19.06 Ю 3 н/о н/о +1.1 -3.7 70 -3 -3 1024.4 1011.3
19 19.06 Ю 4 н/о н/о +3.4 -3.6 60 -0 -0 1024.4 1011.3
20 19.06 Ю 4 н/о н/о +2.5 -3.6 64 -2 -2 1024.6 1011.5
21 19.06 Ю 3 н/о н/о +1.8 -3.5 68 -2 -2 1025.1 1012.0
22 19.06 Ю 1 н/о н/о +2.4 -3.1 67 +1 +1 1025.5 1012.4
23 19.06 ЮВ 3 н/о н/о +5.7 -1.4 60 +3 +3 1025.9 1012.8
00 20.06 Ю 4 н/о н/о +8.4 -0.9 52 +6 +6 1026.2 1013.1
01 20.06 Ю 4 н/о н/о +11.1 -0.1 46 +9 +9 1026.3 1013.2
02 20.06 ЮЗ 4 н/о н/о +12.0 -0.5 42 +10 +10 1025.6 1012.5 +0.5
03 20.06 ЮЗ 4 н/о н/о +12.6 -1.0 39 +11 +11 1024.6 1011.5
04 20.06 ЮЗ 5 н/о н/о +13.4 -2.5 33 +12 +12 1023.6 1010.6
05 20.06 ЮЗ 5 н/о н/о +13.3 -1.4 36 +12 +12 1023.4 1010.4
06 20.06 З 5 н/о н/о +13.3 -1.4 36 +12 +12 1023.4 1010.4
07 20.06 З 4 н/о н/о +12.4 -2.6 35 +11 +11 1023.6 1010.6
08 20.06 З 3 н/о н/о +10.3 -2.4 41 +9 +9 1024.3 1011.2
09 20.06 З 2 н/о н/о +7.1 -3.1 48 +5 +5 1025.2 1012.1
10 20.06 ЮЗ 3 н/о н/о +5.3 -3.5 53 +3 +3 1025.8 1012.7
11 20.06 ЮЗ 3 н/о н/о +5.7 -3.4 52 +3 +3 1026.1 1013.0
12 20.06 ЮЗ 4 н/о н/о +5.8 -3.0 53 +3 +3 1026.2 1013.1
13 20.06 Ю 4 н/о н/о +6.8 -3.4 48 +4 +4 1026.4 1013.3
14 20.06 Ю 4 н/о н/о +5.2 -4.1 51 +2 +2 1026.3 1013.2 +14.0
15 20.06 Ю 3 н/о н/о +3.9 -4.3 55 +1 +1 1026.1 1013.0
16 20.06 ЮЗ 3 н/о н/о +2.8 -4.2 60 -0 -0 1026.2 1013.1
17 20.06 ЮЗ 2 н/о н/о -0.2 -6.0 65 -4 -4 1026.3 1013.2
18 20.06 ЮЗ 2 н/о н/о -0.1 -5.1 69 -3 -3 1026.0 1012.9
19 20.06 ЮЗ 3 н/о н/о +1.3 -4.1 67 -3 -3 1025.9 1012.8
20 20.06 ЮЗ 3 н/о н/о +0.4 -4.4 70 -4 -4 1026.3 1013.2
21 20.06 ЮЗ 2 н/о н/о -3.1 -7.2 73 -7 -7 1026.8 1013.7
22 20.06 ЮЗ 2 н/о н/о +1.1 -3.7 70 -1 -1 1027.1 1014.0
23 20.06 ЮЗ 3 н/о н/о +5.9 -2.0 57 +3 +3 1027.9 1014.8
00 21.06 Ю 6 н/о н/о +9.4 +0.1 52 +6 +6 1028.2 1015.1
01 21.06 Ю 7 н/о н/о +11.5 +0.9 48 +9 +9 1028.1 1015.0
02 21.06 Ю 6 н/о н/о +12.4 +0.5 44 +10 +10 1027.1 1014.0 -3.3
03 21.06 Ю 6 н/о н/о +12.9 0.0 41 +11 +11 1026.3 1013.2
04 21.06 Ю 6 н/о н/о +13.8 -1.0 36 +12 +12 1025.8 1012.7
05 21.06 Ю 6 н/о н/о +14.5 -1.2 34 +13 +13 1025.4 1012.3
06 21.06 Ю 7 н/о н/о +14.1 -2.3 32 +12 +12 1025.5 1012.4
07 21.06 Ю 5 н/о н/о +13.2 -2.3 34 +12 +12 1025.7 1012.6
08 21.06 Ю 3 н/о н/о +11.1 -2.0 40 +10 +10 1026.2 1013.1
09 21.06 Ю 3 н/о н/о +9.2 -2.4 44 +7 +7 1026.8 1013.7
10 21.06 Ю 4 н/о н/о +8.8 -2.2 46 +7 +7 1026.9 1013.8
11 21.06 Ю 3 н/о н/о +7.3 -2.7 49 +5 +5 1027.0 1013.9
12 21.06 ЮЗ 3 н/о н/о +5.9 -2.4 55 +3 +3 1026.9 1013.8
13 21.06 Ю 2 н/о н/о +4.1 -3.0 60 +2 +2 1027.0 1013.9
14 21.06 ЮЗ 3 н/о н/о +2.4 -3.3 66 -1 -1 1026.8 1013.7 +15.1
15 21.06 ЮЗ 2 н/о н/о +2.7 -2.6 68 -0 -0 1026.8 1013.7
16 21.06 ЮЗ 2 н/о н/о -0.9 -5.1 73 -5 -5 1026.7 1013.6
17 21.06 ЮЗ 2 н/о н/о -1.3 -5.7 72 -5 -5 1026.4 1013.3
18 21.06 ЮЗ 2 н/о н/о -2.0 -4.8 81 -6 -6 1026.5 1013.4
19 21.06 Ю 3 н/о н/о -1.5 -3.7 85 -6 -6 1026.6 1013.5
20 21.06 Ю 2 н/о н/о -2.6 -4.2 89 -6 -6 1026.6 1013.5
21 21.06 Ю 3 н/о н/о -0.8 -1.9 92 -5 -5 1026.9 1013.8
22 21.06 Ю 3 н/о н/о +2.0 -0.2 85 -2 -2 1027.3 1014.2
23 21.06 Ю 4 н/о н/о +4.7 -0.1 71 +1 +1 1027.5 1014.4
00 22.06 ЮВ 5 н/о н/о +8.1 +1.0 61 +5 +5 1027.5 1014.4
01 22.06 ЮВ 5 н/о н/о +10.3 +0.6 51 +8 +8 1027.2 1014.1
02 22.06 ЮВ 4 н/о н/о +12.4 +0.2 43 +11 +11 1026.6 1013.5 -2.9
03 22.06 В 3 н/о н/о +14.1 -1.5 34 +13 +13 1025.6 1012.5
04 22.06 В 3 н/о н/о +14.5 -2.8 30 +14 +14 1024.8 1011.7
05 22.06 Ю 5 н/о н/о +14.9 -3.4 28 +14 +14 1024.6 1011.5
06 22.06 Ю 4 н/о н/о +15.0 -3.8 27 +14 +14 1024.4 1011.3
07 22.06 Ю 4 н/о н/о +14.0 -4.2 28 +13 +13 1024.5 1011.4
08 22.06 Ю 3 н/о н/о +10.4 -5.6 32 +9 +9 1024.6 1011.5
09 22.06 Ю 3 н/о н/о +7.4 -5.3 40 +6 +6 1025.2 1012.1
10 22.06 Ю 3 н/о н/о +8.2 -6.0 36 +6 +6 1025.4 1012.3
11 22.06 Ю 4 н/о н/о +8.2 -6.0 36 +6 +6 1025.4 1012.3
12 22.06 ЮВ 3 н/о н/о +7.0 -5.7 40 +5 +5 1025.2 1012.1
13 22.06 Ю 3 н/о н/о +5.0 -5.4 47 +2 +2 1025.1 1012.0
14 22.06 Ю 3 н/о н/о +5.2 -4.6 49 +2 +2 1025.1 1012.0 +15.6
15 22.06 Ю 3 н/о н/о +4.6 -3.4 56 +2 +2 1024.9 1011.8
16 22.06 Ю 3 н/о н/о +4.2 -2.9 60 +1 +1 1024.7 1011.6
17 22.06 ЮЗ 3 н/о н/о +2.9 -3.0 65 -0 -0 1024.7 1011.6
18 22.06 Ю 4 н/о н/о +4.2 -1.8 65 0 0 1024.5 1011.4
19 22.06 Ю 4 н/о н/о +3.9 -1.9 66 -0 -0 1024.5 1011.4
20 22.06 Ю 4 н/о н/о +3.2 -2.1 68 -1 -1 1024.4 1011.3
21 22.06 Ю 4 н/о н/о +2.6 -2.1 71 -2 -2 1025.0 1011.9
22 22.06 Ю 4 н/о н/о +3.9 -1.7 67 -0 -0 1025.6 1012.5
23 22.06 Ю 5 н/о н/о +6.1 -1.1 60 +2 +2 1026.2 1013.1
00 23.06 Ю 4 н/о н/о +9.8 +0.4 52 +7 +7 1026.4 1013.3
01 23.06 Ю 4 н/о н/о +12.2 +0.9 46 +11 +11 1025.9 1012.8
02 23.06 В 4 н/о н/о +15.0 +1.9 41 +14 +14 1024.7 1011.6 +2.5
03 23.06 Ю 5 н/о н/о +15.4 +0.4 36 +14 +14 1023.6 1010.6
04 23.06 ЮВ 5 н/о н/о +16.2 -0.5 32 +15 +15 1023.1 1010.1
05 23.06 ЮВ 6 н/о н/о +16.1 -1.0 31 +15 +15 1023.1 1010.1
06 23.06 ЮВ 5 н/о н/о +16.5 -1.6 29 +16 +16 1023.1 1010.1
07 23.06 Ю 5 н/о н/о +15.5 -2.9 28 +15 +15 1023.5 1010.5
08 23.06 Ю 4 н/о н/о +13.1 -3.6 31 +12 +12 1024.0 1011.0
09 23.06 Ю 4 н/о н/о +11.0 -3.8 35 +9 +9 1024.8 1011.7
10 23.06 Ю 3 н/о н/о +9.9 -3.4 39 +8 +8 1025.4 1012.3
11 23.06 Ю 4 н/о н/о +10.3 -3.4 38 +8 +8 1025.9 1012.8
12 23.06 Ю 5 н/о н/о +9.8 -3.5 39 +7 +7 1026.3 1013.2
13 23.06 Ю 4 н/о н/о +8.4 -3.4 43 +6 +6 1026.4 1013.3
14 23.06 Ю 3 н/о н/о +7.5 -3.1 47 +5 +5 1026.2 1013.1 +17.5
15 23.06 Ю 4 н/о н/о +6.9 -2.5 51 +4 +4 1026.2 1013.1
16 23.06 Ю 4 н/о н/о +7.0 -1.9 53 +4 +4 1026.3 1013.2
17 23.06 Ю 4 н/о н/о +6.4 -1.5 57 +3 +3 1026.1 1013.0
18 23.06 Ю 4 н/о н/о +5.9 -1.0 61 +2 +2 1026.5 1013.4
19 23.06 Ю 4 н/о н/о +4.7 -0.9 67 +1 +1 1026.5 1013.4
20 23.06 Ю 4 н/о н/о +4.0 -0.8 71 0 0 1026.8 1013.7
21 23.06 Ю 4 н/о н/о +4.2 0.0 74 0 0 1027.5 1014.4
22 23.06 Ю 4 н/о н/о +5.5 +0.5 70 +2 +2 1028.5 1015.4
23 23.06 Ю 5 н/о н/о +7.6 +0.8 62 +4 +4 1029.0 1015.9
00 24.06 ЮВ 5 н/о н/о +11.4 +2.7 55 +9 +9 1029.2 1016.1
01 24.06 ЮВ 4 н/о н/о +14.2 +3.1 47 +13 +13 1028.8 1015.7
02 24.06 В 5 н/о н/о +16.0 +3.4 43 +15 +15 1027.9 1014.8 +4.0
03 24.06 ЮВ 5 н/о н/о +16.4 +2.8 40 +16 +16 1027.3 1014.2
05 24.06 В 6 н/о н/о +17.9 +1.8 34 +17 +17 1026.2 1013.1
06 24.06 В 4 н/о н/о +18.0 +1.5 33 +18 +18 1026.3 1013.2
07 24.06 В 3 н/о н/о +16.4 +1.7 37 +16 +16 1026.7 1013.6
08 24.06 В 2 н/о н/о +13.5 +1.2 43 +13 +13 1027.3 1014.2

 

Местоположение метеостанции Бурк (Новый Южный Уэльс, Австралия): широта -30.03 долгота 145.95 высота над уровнем моря 108 м.

В архиве по умолчанию представлена погода в Бурке за последнюю неделю. Архивные данные за месяц целиком и за предыдущие месяцы, начиная с января 2011 года, Вы можете получить, выбрав интересующий диапазон дат из раскрывающегося списка и нажав кнопку "Ввод!".


*Определитесь, кто Вы:
робот инопланетянин человек

Внимание! Время в таблицах - всемирное. Для получения местного времени необходимо прибавить поправку, которая равна 10 ч.

Смотрите также архив погоды в соседних городах и на ближайших метеорологических станциях:

Погода в Кобаре (Новый Южный Уэльс, Австралия) (162 км)
Погода в Кобар аэропорту (Новый Южный Уэльс, Австралия) (167 км)
Погода в Уолджетте (Новый Южный Уэльс, Австралия) (209 км)
Погода в Кунамбле (Новый Южный Уэльс, Австралия) (256 км)
Погода в Транги (Новый Южный Уэльс, Австралия) (289 км)
Погода в Уафт Клифс (Новый Южный Уэльс, Австралия) (291 км)
Погода в Уилкании (Новый Южный Уэльс, Австралия) (296 км)
Погода в Таргоминде (Квинсленд, Австралия) (309 км)
Погода в Сейнт Джордж аэропорту (Квинсленд, Австралия) (339 км)
Погода в Даббо (Новый Южный Уэльс, Австралия) (347 км)

Пояснения к столбцам:

Ветер - указаны скорость ветра в м/с - средняя за 10 мин, порывы в срок и между сроками (в фигурных скобках) и направление, откуда дует ветер: С - северный, СВ - северо-восточный, В - восточный, ЮВ - юго-восточный, Ю - южный, ЮЗ - юго-западный, З - западный, СЗ - северо-западный.
Видимость - горизонтальная дальность видимости в метрах или километрах. При видимости от 1 до 10 км при отсутствии осадков обычно наблюдается дымка, при ухудшении видимости до 1 км и менее - туман. В сухую погоду видимость может ухудшаться дымом, пылью или мглою.
Явления - указаны атмосферные явления, наблюдавшиеся в срок или в последний час перед сроком; фигурными скобками обозначены явления, наблюдавшиеся между сроками (за 1-3 часа до срока); квадратными скобками обозначены град или гололедные отложения с указанием их диаметра в мм.
Облачность - указаны через наклонную черту общая и нижняя облачность в баллах и высота нижней границы облаков в метрах; квадратными скобками обозначены формы облаков: Ci - перистые, Cs - перисто-слоистые, Cc - перисто-кучевые, Ac - высококучевые, As - высокослоистые, Sc - слоисто-кучевые, Ns - слоисто-дождевые, Cu - кучевые, Cb - кучево-дождевые. Подробнее классификацию облаков см. в Атласе облаков (PDF).
T - Температура воздуха - температура, измеренная на высоте 2 м над землей.
Td - Температура точки росы - температура, при понижении до которой содержащийся в воздухе водяной пар достигнет насыщения.
f - Относительная влажность воздуха - влажноcть воздуха, измеренная на высоте 2 м над землей.
Te - Эффективная температура - температура, которую ощущает одетый по сезону человек в тени. Характеристика душности погоды. При расчете учитывается влияние влажности воздуха и скорости ветра на теплоощущения человека.
Tes - Эффективная температура на солнце - температура, которую ощущает человек, с поправкой на солнечный нагрев. Характеристика знойности погоды. Зависит от высоты солнца над горизонтом, облачности и скорости ветра. Ночью, в пасмурную погоду, а также при ветре 12 м/с и более поправка равна нулю.
P - Атмосферное давление - приведенное к уровню моря атмосферное давление.
Po - Атмосферное давление - измеренное на уровне метеостанции атмосферное давление.
Tmin - Минимальная температура - минимум температуры воздуха на высоте 2 м над землей.
Tmax - Максимальная температура - максимум температуры воздуха на высоте 2 м над землей.
R - Количество осадков - Количество выпавших осадков за период времени, мм. При наведении курсора мыши на число - период времени, за который выпало указанное количество осадков.
R24 - Количество осадков - Количество выпавших осадков за 24 часа, мм.
S - Снежный покров - Высота снежного покрова, см. При наведении курсора мыши на число - состояние снежного покрова и степень покрытия местности в баллах.